Casa Grande, AZ

1:11 AM MST on November 13, 2019 (GMT -0700)
Casa Grande Municipal

Weather History for KCGZ - September, 2019

Change the Weather History Date:

Friday, September 20, 2019

  Actual Average Record
Temperature  
Mean Temperature 80 °F -  
Max Temperature 97 °F 94 °F 102 °F (2001)
Min Temperature 63 °F 67 °F 60 °F (1996)
Cooling Degree Days 15    
Growing Degree Days 30 (Base 50)    
Moisture  
Dew Point 38 °F    
Average Humidity 23    
Maximum Humidity 46    
Minimum Humidity 12    
Precipitation  
Precipitation 0.00 in - - ()
Sea Level Pressure  
Sea Level Pressure 29.78 in    
Wind  
Wind Speed 4 mph ()    
Max Wind Speed 20 mph    
Max Gust Speed 25 mph    
Visibility 10.0 miles    
Events      
Averages and records for this station are not official NWS values.
T = Trace of Precipitation, MM = Missing Value Source: Averaged Metar Reports

Daily Weather History Graph

Daily Weather History Graph

Search for Another Location

Airport or City:

Astronomy

Sep. 20, 2019 Rise Set
Actual Time 6:13 AM MST 6:26 PM MST
Civil Twilight 5:49 AM MST 6:51 PM MST
Nautical Twilight 5:20 AM MST 7:20 PM MST
Astronomical Twilight 4:51 AM MST 7:49 PM MST
Moon 10:37 PM MST (9/20) 12:04 PM MST (9/20)
Length of Visible Light 13h 02m
Length of Day
12h 12m
Waning Gibbous, 64% of the Moon is Illuminated
Sep 20
Waning Gibbous
Sep 21
Last Quarter
Sep 28
New
Oct 5
First Quarter
Oct 13
Full

Hourly Weather History & Observations

Time (MST) Temp. Dew Point Humidity Pressure Visibility Wind Dir Wind Speed Gust Speed Precip Events Conditions
12:56 AM 75.0 °F 37.0 °F 25% 29.74 in 10.0 mi Calm Calm - N/A   Clear
1:56 AM 71.1 °F 37.9 °F 30% 29.75 in 10.0 mi ENE 3.5 mph - N/A   Clear
2:56 AM 69.1 °F 39.9 °F 35% 29.74 in 10.0 mi NW 4.6 mph - N/A   Clear
3:56 AM 66.9 °F 39.9 °F 37% 29.75 in 10.0 mi Calm Calm - N/A   Clear
4:56 AM 68.0 °F 42.1 °F 39% - 10.0 mi Calm Calm - N/A   Clear
5:56 AM 63.0 °F 42.1 °F 46% 29.77 in 10.0 mi Calm Calm - N/A   Clear
6:56 AM 66.0 °F 43.0 °F 43% 29.80 in 10.0 mi Calm Calm - N/A   Clear
7:56 AM 75.0 °F 46.0 °F 36% 29.82 in 10.0 mi Calm Calm - N/A   Clear
8:56 AM 80.1 °F 39.9 °F 24% 29.83 in 10.0 mi Calm Calm - N/A   Clear
9:56 AM 84.0 °F 37.9 °F 19% 29.83 in 10.0 mi Calm Calm - N/A   Clear
10:56 AM 88.0 °F 33.1 °F 14% 29.82 in 10.0 mi Variable 4.6 mph - N/A   Clear
11:56 AM 91.0 °F 35.1 °F 14% 29.81 in 10.0 mi South 9.2 mph 19.6 mph N/A   Clear
12:56 PM 93.0 °F 35.1 °F 13% 29.78 in 10.0 mi ESE 9.2 mph - N/A   Clear
1:30 PM 96.8 °F 37.4 °F 13% 29.81 in 10.0 mi SSW 19.6 mph 25.3 mph N/A   Clear
1:56 PM 96.1 °F 39.0 °F 14% 29.75 in 10.0 mi SSW 19.6 mph 23.0 mph N/A   Clear
2:56 PM 97.0 °F 41.0 °F 14% 29.73 in 10.0 mi SSW 18.4 mph 23.0 mph N/A   Clear
3:56 PM 97.0 °F 37.0 °F 12% 29.73 in 10.0 mi SW 10.4 mph 23.0 mph N/A   Clear
4:56 PM 93.9 °F 36.0 °F 13% 29.73 in 10.0 mi West 12.7 mph - N/A   Clear
5:56 PM 91.9 °F 37.0 °F 15% 29.73 in 9.0 mi West 10.4 mph - N/A   Clear
6:56 PM 87.1 °F 37.0 °F 17% 29.75 in 10.0 mi WNW 8.1 mph - N/A   Clear
7:56 PM 82.0 °F 37.0 °F 20% 29.77 in 10.0 mi West 8.1 mph - N/A   Clear
8:56 PM 81.0 °F 36.0 °F 20% 29.78 in 10.0 mi NW 6.9 mph - N/A   Clear
9:56 PM 78.1 °F 30.9 °F 18% 29.80 in 10.0 mi Calm Calm - N/A   Clear
10:56 PM 72.0 °F 35.1 °F 26% 29.81 in 10.0 mi SSW 3.5 mph - N/A   Clear
11:56 PM 73.0 °F 36.0 °F 26% 29.81 in 10.0 mi Calm Calm - N/A   Clear